Wind_Speed
48 48 49 49 49 50 50 50 50 50 49 49 49 49 48 48 47 46 46 46 45 45 44 44 43 43 42 42 41 41 40 40 39 39 38 38 37 37 36 36 36 35 35 35
48 48 47 46 47 48 49 50 50 49 49 49 49 49 49 49 48 47 46 46 46 46 45 44 44 43 43 42 41 41 41 41 40 40 40 39 39 38 38 37 36 36 36 35
47 45 45 46 47 48 48 49 48 48 48 50 50 50 49 49 49 49 48 47 46 45 45 44 44 44 43 42 42 42 41 41 41 41 40 40 40 39 39 38 37 37 36 36
44 44 45 44 45 46 46 47 47 47 48 49 50 50 50 49 49 49 48 47 46 46 45 44 44 44 43 43 43 42 42 41 41 41 41 41 40 40 40 39 39 38 38 38
43 43 43 43 43 43 43 44 45 46 47 48 49 50 50 49 49 48 47 47 46 46 46 45 45 44 44 44 44 43 43 42 42 42 42 42 41 41 40 40 40 40 40 40
42 42 42 42 41 42 42 42 43 44 45 47 48 48 49 49 48 47 47 46 46 46 46 45 45 44 44 44 44 44 43 43 43 43 43 42 42 41 41 41 41 42 42 42
41 40 41 41 41 42 42 42 42 43 45 47 47 48 48 47 46 46 46 46 45 45 45 45 45 44 44 44 44 44 44 44 43 43 43 43 42 42 42 42 43 43 43 43
39 39 40 40 41 42 42 41 42 43 45 45 45 47 47 45 44 44 45 46 46 46 45 45 45 45 44 44 44 44 44 44 44 44 44 43 43 43 43 43 43 43 43 43
36 37 38 39 39 40 41 41 41 42 44 44 45 46 45 44 43 43 44 45 45 45 45 45 45 45 45 45 45 45 45 44 44 44 44 44 44 44 44 44 44 43 43 43
33 35 36 38 38 39 40 40 40 41 42 43 44 45 45 44 43 43 43 44 44 45 45 45 45 45 45 45 46 46 45 45 45 45 45 45 45 45 45 44 44 44 44 44
31 34 35 36 38 38 39 39 40 40 41 41 42 44 44 43 43 43 43 43 44 44 44 45 45 45 45 46 46 46 46 46 46 46 46 45 45 45 45 45 45 45 45 45
29 31 33 34 35 37 38 38 39 39 39 40 41 42 42 41 41 41 41 42 43 43 43 44 45 45 45 45 46 46 46 46 46 46 46 46 45 45 45 45 45 46 46 46
26 29 31 32 35 36 37 38 38 38 38 39 40 41 40 40 40 39 39 40 41 42 42 43 44 45 45 45 45 45 46 46 47 47 47 46 46 46 46 46 46 46 46 46
25 27 28 31 33 34 35 36 38 38 38 38 38 39 38 38 38 39 39 39 40 40 41 42 43 44 44 45 45 45 46 46 47 46 46 46 46 47 47 47 47 47 46 46
23 23 25 28 29 31 33 34 37 38 37 37 36 36 36 36 37 37 38 38 39 40 40 40 41 43 44 45 45 45 46 47 47 47 47 47 47 47 47 47 47 47 47 47
21 22 23 25 27 29 30 32 34 36 37 37 36 35 34 35 36 36 37 37 39 39 39 40 41 42 43 44 45 46 46 47 47 47 47 47 47 47 47 47 47 47 46 46
20 21 22 24 25 28 30 31 33 34 35 36 36 35 35 35 34 35 36 37 38 39 39 39 41 42 43 44 44 45 46 47 47 47 47 47 47 47 46 47 47 47 46 46
19 20 21 22 24 26 27 30 31 32 33 35 36 37 37 37 36 35 35 36 37 38 38 39 40 41 42 43 44 44 44 45 46 47 47 47 47 46 46 46 46 46 46 46
17 18 20 21 22 23 25 27 30 31 31 33 34 36 37 37 37 36 35 36 37 37 38 39 39 40 41 42 43 44 44 44 45 46 46 46 46 46 46 46 46 46 45 46
18 18 19 20 21 22 23 24 26 29 30 31 31 32 34 35 35 35 36 36 36 37 38 38 39 39 40 41 42 42 43 43 44 45 45 46 46 46 46 46 45 45 45 45
17 18 19 19 20 21 22 22 24 26 27 29 29 30 31 33 33 34 35 36 36 37 37 37 38 38 39 40 40 41 41 42 43 43 44 45 45 45 45 45 45 45 45 44
17 18 18 19 20 21 21 21 22 23 24 26 27 29 30 31 32 33 34 35 35 36 36 37 37 36 37 38 38 39 40 40 40 41 41 42 43 43 44 44 44 44 44 44
16 17 17 18 19 20 21 21 21 22 23 23 25 26 27 28 29 30 32 33 33 34 34 35 35 35 36 37 37 38 38 39 39 40 40 40 41 41 42 42 42 42 42 42
14 15 16 16 17 19 20 21 22 22 22 23 23 25 26 27 27 28 29 30 32 32 32 33 34 34 36 36 36 37 37 37 37 38 39 39 40 40 40 40 40 40 40 41
13 14 15 15 16 17 19 20 21 22 23 24 23 24 25 25 26 27 27 28 30 30 31 32 33 33 34 35 35 35 36 36 37 37 37 38 38 38 38 38 38 38 38 39
13 14 15 15 16 16 17 19 20 21 22 23 24 25 26 25 25 26 27 28 28 29 30 30 31 32 32 33 34 34 35 35 36 37 37 37 37 38 38 37 37 37 37 37
Wind_Direction
223 225 226 228 229 230 231 232 232 232 232 232 232 231 230 230 231 231 232 232 233 233 234 235 236 237 238 239 240 241 243 244 244 245 247 248 249 250 252 255 257 259 261 262
223 225 226 227 228 229 230 231 231 232 231 232 232 231 231 230 231 232 232 233 233 234 234 235 235 237 238 239 240 240 242 243 244 246 247 248 249 250 252 255 257 259 261 262
225 225 226 227 227 227 228 229 229 230 231 232 232 232 231 231 231 232 232 232 233 234 235 236 236 237 238 239 240 241 242 243 244 246 247 248 250 251 253 255 257 259 260 262
224 224 225 226 226 225 227 228 228 230 231 231 232 233 232 232 232 232 232 232 233 234 235 236 237 237 238 239 240 241 242 243 244 246 247 248 250 252 254 255 257 259 261 263
222 223 224 224 225 225 227 227 228 229 232 233 232 234 233 233 233 232 232 233 234 234 235 236 237 237 238 238 239 241 242 243 244 245 247 249 250 252 254 256 258 260 262 264
222 222 223 223 223 224 226 227 228 230 232 233 233 235 234 233 233 232 233 233 233 234 235 236 236 237 238 239 239 240 241 242 244 245 247 249 251 253 255 257 259 261 263 265
220 220 220 221 222 223 225 226 227 230 231 234 233 235 235 234 233 233 233 234 234 234 235 235 236 237 238 239 240 240 241 242 243 245 247 249 251 253 255 257 259 262 264 265
221 220 219 220 222 223 224 226 228 230 233 235 235 235 234 234 233 233 233 234 235 235 235 236 237 237 238 239 239 240 242 243 244 245 247 249 251 253 255 258 260 262 264 266
221 222 220 220 221 223 224 225 229 232 234 237 237 236 235 234 234 233 234 234 235 235 235 236 237 237 238 239 240 241 242 243 245 246 248 249 251 253 255 258 260 262 263 265
222 223 221 221 221 223 225 227 229 231 233 237 238 237 235 234 235 234 234 235 235 236 236 236 236 237 238 239 241 241 242 243 245 247 249 250 252 254 255 258 260 262 264 266
224 224 222 222 222 223 225 226 228 231 234 237 239 239 237 237 236 236 235 236 236 237 237 237 237 237 238 240 241 242 242 244 245 247 249 251 253 255 256 257 259 262 264 266
224 224 224 225 225 226 228 230 231 231 234 237 240 241 239 239 238 238 237 237 237 237 238 238 238 238 239 240 241 242 243 244 246 247 249 251 253 255 257 258 260 262 265 267
225 225 225 225 226 226 227 229 230 232 235 237 238 241 240 240 240 239 238 238 238 239 239 239 239 239 240 240 242 243 244 245 247 248 249 251 253 255 257 259 261 264 265 266
226 227 228 229 230 230 230 230 230 232 234 236 237 239 240 240 240 240 239 239 239 240 240 239 239 239 239 240 241 242 244 246 247 248 250 252 254 256 258 260 262 264 265 266
226 228 229 230 231 233 233 233 232 232 233 235 235 236 237 238 239 239 239 239 240 240 240 239 239 239 240 241 242 243 244 246 247 249 251 252 254 256 258 260 262 263 265 266
229 230 231 230 231 233 234 234 234 233 233 234 234 234 235 237 238 239 240 239 239 240 241 241 240 240 241 242 243 244 245 246 247 249 251 252 254 256 258 260 261 263 265 267
233 235 235 235 235 236 235 234 235 235 235 235 235 234 235 236 238 240 241 240 240 241 242 242 242 242 242 243 244 245 245 246 247 248 250 252 253 255 257 259 261 263 266 267
237 239 239 240 237 238 237 235 234 235 236 236 237 236 238 239 240 241 242 241 241 241 242 243 243 243 243 244 245 246 246 246 247 248 250 251 253 255 257 259 261 263 265 267
236 239 242 243 241 238 234 234 234 234 234 236 238 239 240 241 243 243 243 243 243 242 243 243 244 244 244 244 244 245 246 246 247 248 250 252 253 255 257 259 261 263 265 268
239 240 243 242 242 238 236 235 235 236 235 235 237 238 239 241 243 243 244 244 244 244 245 245 245 245 245 246 246 247 246 247 248 249 251 252 254 256 257 260 261 264 266 268
237 240 242 241 241 241 239 237 235 236 236 236 237 238 239 240 243 243 244 245 246 247 247 248 247 247 247 247 248 249 248 249 249 251 252 252 254 256 258 260 262 264 267 269
236 238 239 239 239 239 239 239 238 238 237 237 237 239 239 241 242 243 244 245 246 247 248 249 249 249 247 247 248 249 249 249 250 251 253 254 255 256 258 261 263 266 268 270
238 239 239 239 239 240 240 241 241 239 238 237 238 239 239 241 242 243 245 245 245 246 247 247 248 248 247 247 247 248 250 250 251 252 253 254 255 257 259 261 263 266 268 269
243 242 242 242 242 242 242 242 241 240 239 237 237 238 240 241 243 244 244 245 244 244 245 245 246 247 247 248 248 248 249 250 251 252 254 254 255 258 260 262 264 265 267 268
249 247 246 246 244 244 242 242 242 241 241 240 240 239 241 243 245 245 243 243 243 244 245 246 247 246 246 247 248 248 248 249 251 253 254 256 257 259 261 263 264 265 267 269
253 251 252 249 248 247 247 245 243 244 244 243 242 243 243 245 246 246 245 245 245 245 246 247 248 247 247 248 249 250 250 251 252 253 255 258 259 260 262 264 266 267 269 269
Height
5630 5637 5643 5652 5659 5666 5672 5678 5684 5690 5695 5701 5706 5712 5717 5722 5727 5732 5737 5742 5747 5751 5755 5759 5763 5767 5770 5773 5777 5780 5783 5785 5788 5791 5793 5795 5797 5799 5800 5801 5802 5804 5804 5805
5621 5627 5637 5643 5648 5654 5660 5666 5672 5679 5684 5690 5695 5701 5706 5712 5717 5723 5727 5732 5737 5742 5746 5750 5754 5758 5761 5765 5768 5771 5774 5777 5780 5783 5785 5787 5789 5791 5792 5794 5795 5796 5796 5797
5612 5622 5627 5632 5638 5644 5650 5656 5663 5669 5674 5679 5685 5690 5696 5702 5707 5713 5718 5723 5728 5732 5737 5741 5745 5749 5753 5757 5760 5763 5766 5769 5772 5774 5777 5779 5781 5783 5785 5786 5787 5788 5788 5789
5603 5611 5617 5623 5628 5635 5641 5647 5653 5658 5663 5668 5675 5680 5686 5692 5697 5703 5708 5713 5719 5723 5728 5732 5736 5740 5744 5747 5751 5754 5757 5760 5763 5766 5768 5771 5773 5775 5777 5778 5779 5780 5780 5781
5595 5602 5608 5614 5621 5626 5632 5638 5643 5648 5653 5658 5664 5669 5677 5682 5687 5693 5699 5704 5709 5714 5718 5723 5727 5731 5734 5738 5741 5745 5748 5751 5754 5757 5760 5762 5764 5766 5768 5769 5770 5771 5772 5772
5587 5593 5600 5606 5612 5617 5623 5629 5634 5638 5642 5648 5655 5660 5666 5672 5679 5685 5689 5694 5699 5704 5709 5713 5717 5721 5725 5729 5732 5736 5739 5742 5745 5748 5751 5753 5755 5757 5759 5760 5761 5762 5763 5763
5578 5584 5590 5597 5602 5608 5614 5620 5625 5628 5632 5638 5645 5649 5656 5663 5669 5674 5680 5684 5689 5694 5699 5703 5707 5711 5715 5719 5723 5726 5730 5733 5736 5738 5741 5744 5746 5748 5750 5751 5752 5753 5753 5754
5571 5577 5583 5588 5594 5600 5606 5612 5618 5622 5626 5631 5636 5640 5648 5654 5659 5664 5669 5674 5679 5683 5688 5693 5697 5701 5706 5709 5713 5717 5720 5723 5726 5729 5731 5734 5736 5738 5740 5741 5742 5743 5743 5744
5565 5571 5576 5582 5588 5594 5598 5603 5609 5614 5617 5622 5626 5632 5638 5644 5649 5654 5659 5664 5668 5673 5678 5682 5687 5691 5695 5699 5703 5707 5710 5713 5716 5719 5721 5723 5726 5728 5730 5731 5732 5733 5733 5734
5558 5564 5569 5574 5580 5584 5591 5596 5601 5605 5608 5613 5618 5623 5629 5635 5640 5645 5649 5654 5658 5663 5668 5672 5676 5681 5685 5689 5693 5696 5700 5703 5706 5709 5711 5713 5716 5717 5719 5720 5721 5722 5723 5723
5553 5558 5563 5567 5572 5577 5583 5588 5592 5596 5600 5606 5610 5617 5621 5626 5630 5635 5639 5644 5648 5653 5657 5662 5666 5671 5675 5679 5682 5686 5690 5693 5696 5698 5701 5703 5705 5707 5708 5710 5711 5711 5712 5712
5547 5551 5556 5561 5566 5570 5575 5580 5585 5590 5593 5597 5602 5609 5612 5617 5621 5625 5629 5634 5638 5643 5647 5651 5656 5660 5664 5668 5672 5676 5679 5682 5685 5688 5690 5693 5695 5696 5698 5699 5700 5701 5701 5701
5541 5545 5549 5553 5559 5562 5567 5572 5577 5581 5585 5589 5594 5601 5603 5607 5611 5615 5620 5624 5628 5633 5637 5641 5645 5649 5653 5657 5661 5665 5668 5671 5674 5677 5679 5682 5684 5685 5687 5688 5689 5689 5690 5690
5537 5540 5545 5549 5552 5557 5561 5565 5569 5573 5577 5581 5586 5591 5596 5599 5602 5606 5610 5614 5618 5622 5626 5630 5634 5638 5642 5646 5650 5653 5657 5660 5663 5665 5668 5670 5672 5674 5675 5676 5677 5678 5678 5678
5532 5535 5538 5542 5546 5550 5554 5558 5561 5565 5569 5574 5579 5582 5587 5590 5593 5597 5601 5605 5609 5612 5616 5620 5624 5628 5631 5635 5639 5642 5645 5648 5651 5654 5657 5659 5661 5662 5664 5665 5665 5666 5666 5666
5527 5530 5533 5536 5539 5542 5545 5549 5553 5557 5561 5565 5570 5574 5578 5581 5585 5588 5592 5595 5599 5603 5606 5610 5614 5617 5621 5624 5627 5631 5634 5637 5640 5643 5645 5647 5649 5651 5652 5653 5654 5654 5654 5655
5523 5526 5528 5531 5533 5535 5538 5542 5546 5550 5554 5558 5562 5567 5569 5573 5576 5580 5583 5586 5589 5593 5596 5600 5603 5606 5610 5613 5616 5619 5622 5625 5628 5631 5633 5635 5637 5639 5640 5641 5642 5643 5643 5643
5519 5521 5522 5524 5527 5529 5534 5535 5538 5542 5546 5549 5553 5557 5560 5564 5567 5570 5574 5577 5580 5583 5586 5589 5592 5596 5599 5602 5605 5608 5611 5614 5616 5619 5621 5624 5626 5627 5629 5630 5631 5631 5631 5631
5514 5516 5517 5518 5519 5522 5526 5528 5531 5534 5538 5541 5545 5548 5552 5555 5558 5562 5564 5567 5570 5573 5576 5579 5582 5585 5588 5591 5594 5597 5600 5602 5605 5607 5610 5612 5614 5616 5617 5618 5619 5619 5619 5619
5509 5511 5512 5513 5514 5516 5521 5522 5524 5527 5530 5534 5537 5540 5543 5546 5550 5553 5555 5558 5560 5563 5566 5569 5572 5574 5577 5580 5583 5586 5588 5591 5594 5596 5598 5600 5602 5604 5605 5606 5607 5607 5607 5606
5504 5505 5506 5508 5509 5511 5514 5515 5517 5522 5525 5526 5529 5532 5535 5538 5541 5544 5546 5548 5551 5554 5556 5559 5561 5564 5567 5569 5572 5575 5577 5580 5582 5584 5586 5588 5590 5592 5593 5595 5595 5595 5595 5594
5499 5500 5501 5502 5504 5508 5508 5509 5512 5514 5516 5518 5521 5523 5526 5529 5531 5534 5536 5539 5542 5544 5546 5549 5551 5554 5556 5559 5561 5564 5566 5569 5571 5573 5575 5577 5579 5580 5582 5583 5583 5583 5583 5583
5494 5496 5496 5498 5501 5501 5502 5503 5505 5507 5509 5511 5513 5516 5518 5521 5523 5525 5527 5530 5532 5535 5537 5539 5542 5544 5546 5549 5551 5554 5556 5558 5560 5562 5564 5566 5568 5569 5570 5571 5571 5572 5571 5571
5489 5490 5491 5492 5493 5495 5496 5497 5499 5501 5503 5504 5506 5509 5511 5513 5515 5517 5519 5521 5523 5525 5528 5530 5532 5534 5537 5539 5541 5544 5546 5548 5550 5552 5554 5555 5557 5558 5559 5559 5560 5560 5560 5560
5485 5485 5486 5487 5488 5489 5491 5492 5493 5495 5496 5498 5500 5502 5504 5506 5508 5509 5511 5513 5515 5517 5519 5521 5523 5525 5527 5529 5531 5533 5536 5538 5540 5542 5543 5545 5546 5547 5548 5549 5549 5549 5549 5549
5481 5481 5482 5483 5483 5484 5485 5486 5488 5489 5490 5492 5493 5495 5497 5499 5500 5502 5503 5505 5507 5509 5511 5512 5514 5516 5517 5519 5522 5523 5525 5527 5529 5531 5533 5534 5535 5537 5538 5538 5539 5538 5538 5538